Location: Lombard
(41.8800°N, 88.0080°W)
Time: 14:43:18
(UTC-05:00)

BEESAT 2 - Visible Passes

Search period start: 16 May 2022 00:00
Search period end: 26 May 2022 00:00
Orbit: 489 x 509 km, 64.9° (Epoch: 16 May)

Date Brightness Start Highest point End Pass type
(mag) Time Alt. Az. Time Alt. Az. Time Alt. Az.
16 May ? 01:22:32 30° N 01:22:32 30° N 01:24:45 10° NNE visible
17 May ? 01:01:38 29° NNE 01:01:38 29° NNE 01:03:42 10° NNE visible
18 May ? 00:40:39 28° NNE 00:40:39 28° NNE 00:42:38 10° NNE visible
19 May ? 00:19:34 28° NNE 00:19:34 28° NNE 00:21:33 10° NNE visible
19 May ? 23:58:23 30° NNE 23:58:23 30° NNE 00:00:25 10° NNE visible
20 May ? 01:33:40 10° NW 01:34:30 11° NW 01:35:21 10° NNW visible
20 May ? 23:37:04 33° NNE 23:37:04 33° NNE 23:39:16 10° NNE visible
21 May ? 01:11:58 10° WNW 01:13:17 11° NW 01:14:37 10° NNW visible
21 May ? 23:15:33 39° NE 23:15:33 39° NE 23:18:05 10° NE visible
22 May ? 00:50:23 10° WNW 00:52:02 12° NW 00:53:43 10° NNW visible
22 May ? 22:53:48 54° NE 22:53:48 54° NE 22:56:53 10° NE visible
23 May ? 00:28:51 10° WNW 00:30:48 13° NW 00:32:44 10° N visible
23 May ? 22:31:41 64° SE 22:31:50 65° ESE 22:35:39 10° NE visible
24 May ? 00:07:20 10° WNW 00:09:31 14° NW 00:11:42 10° N visible
24 May ? 22:08:58 30° S 22:10:36 57° ESE 22:14:22 10° NE visible
24 May ? 23:45:50 10° W 23:48:13 16° NW 23:50:36 10° N visible
25 May ? 21:45:40 10° SSW 21:49:21 50° ESE 21:53:05 10° NE visible
25 May ? 23:24:20 10° W 23:26:54 17° NW 23:29:29 10° N visible
